FW8207 Weather Reports


time (UTC)temp
C
wind
direction
speed
KPH
gust
KPH
rain 1hr
cm
rain 24hr
cm
rain mn
cm
humidity
%
barometer
mb
20260505140358 13 65 4.8 4.8 0.00 0.36 0.36 99 1007.3
20260505124811 13 117 1.6 3.2 0.00 0.36 0.36 99 1006.6
20260505124308 13 93 3.2 4.8 0.00 0.36 0.36 99 1006.8
20260505123804 13 151 1.6 3.2 0.00 0.36 0.36 99 1006.7
20260505123301 14 107 0.0 1.6 0.00 0.36 0.36 99 1006.8
20260505122757 14 125 0.0 0.0 0.00 0.36 0.36 99 1006.3
20260505122255 14 60 4.8 9.7 0.00 0.36 0.36 99 1006.6
20260505121751 14 98 1.6 1.6 0.00 0.36 0.36 99 1006.6
20260505121248 14 114 3.2 3.2 0.00 0.36 0.36 99 1006.6
20260505120744 14 109 0.0 0.0 0.00 0.36 0.36 99 1006.8
20260505120240 14 25 4.8 8.0 0.00 0.36 0.36 99 1006.4
20260505115739 14 100 3.2 3.2 0.00 0.36 0.36 99 1006.5
20260505115237 14 108 0.0 0.0 0.00 0.36 0.36 99 1006.8
20260505114734 14 181 1.6 1.6 0.00 0.36 0.36 99 1006.6
20260505114230 14 70 3.2 4.8 0.00 0.36 0.36 99 1006.1
20260505113727 14 128 0.0 0.0 0.00 0.36 0.36 99 1005.5
20260505113223 14 119 0.0 1.6 0.00 0.36 0.36 99 1005.9
20260505112720 13 118 0.0 0.0 0.00 0.36 0.36 99 1005.8
20260505112218 13 82 4.8 4.8 0.00 0.36 0.36 99 1006.1
20260505111717 13 113 0.0 0.0 0.00 0.36 0.36 99 1006.7
20260505111214 13 154 0.0 1.6 0.00 0.36 0.36 99 1006.4
20260505110709 13 137 0.0 0.0 0.00 0.36 0.36 99 1006.2
20260505110207 14 136 0.0 0.0 0.00 0.36 0.36 99 1006.2
20260505102142 14 152 1.6 1.6 0.00 0.33 0.33 99 1005.4
20260505101641 14 68 1.6 3.2 0.00 0.33 0.33 99 1005.4
20260505101137 14 130 0.0 1.6 0.00 0.33 0.33 98 1005.3
20260505100633 15 98 1.6 1.6 0.00 0.33 0.33 98 1004.8
20260505100130 15 118 0.0 0.0 0.00 0.33 0.33 97 1004.9
20260505095626 15 145 1.6 1.6 0.00 0.33 0.33 97 1004.6
20260505095124 15 115 4.8 4.8 0.00 0.33 0.33 96 1004.7
20260505094620 15 157 6.4 8.0 0.00 0.33 0.33 96 1004.6
20260505094116 15 125 6.4 9.7 0.00 0.33 0.33 95 1004.3
20260505093613 15 164 6.4 8.0 0.00 0.33 0.33 95 1004.6
20260505093110 15 150 11.3 16.1 0.18 0.33 0.33 96 1004.5
20260505092607 15 145 11.3 12.9 0.18 0.33 0.33 97 1005.2
20260505092106 15 139 3.2 3.2 0.00 0.30 0.30 97 1005.6
20260505091602 15 143 3.2 3.2 0.18 0.30 0.30 97 1005.8
20260505091100 15 144 1.6 1.6 0.30 0.30 0.30 96 1005.9
20260505090558 15 118 0.0 0.0 0.30 0.28 0.28 96 1006.2
20260505090056 15 327 4.8 8.0 0.30 0.25 0.25 96 1006.2
20260505085553 15 191 1.6 1.6 0.48 0.25 0.25 95 1006.4
20260505085051 15 224 4.8 8.0 0.48 0.20 0.20 95 1006.4
20260505084549 15 139 6.4 8.0 0.43 0.18 0.18 94 1006.5
20260505084047 15 190 3.2 3.2 0.30 0.13 0.13 93 1005.9
20260505083544 16 328 6.4 8.0 0.30 0.10 0.10 93 1006.3
20260505083040 16 233 11.3 12.9 0.30 0.08 0.08 92 1005.9
20260505082536 16 264 8.0 11.3 0.18 0.05 0.05 91 1005.9
20260505082033 16 257 8.0 12.9 0.13 0.03 0.03 89 1005.9
20260505081529 16 207 11.3 12.9 0.13 0.03 0.03 87 1006.3
20260505081027 16 203 6.4 11.3 0.00 0.00 0.00 85 1006.2
20260505080523 17 208 3.2 3.2 0.00 0.00 0.00 83 1005.7
20260505080020 17 176 1.6 1.6 0.00 0.00 0.00 81 1005.7
20260505075516 17 127 0.0 1.6 0.00 0.00 0.00 80 1005.8
20260505075013 17 220 3.2 3.2 0.00 0.00 0.00 79 1005.7
20260505074510 17 179 4.8 8.0 0.00 0.00 0.00 79 1005.4
20260505074007 17 203 4.8 4.8 0.00 0.00 0.00 79 1005.5
20260505073504 17 174 4.8 4.8 0.00 0.00 0.00 78 1005.5
20260505073002 17 148 3.2 3.2 0.00 0.00 0.00 79 1005.5
20260505072458 17 194 4.8 4.8 0.00 0.00 0.00 78 1005.4
20260505071954 17 160 1.6 4.8 0.00 0.00 0.00 78 1005.5
20260505071450 17 194 8.0 9.7 0.00 0.00 0.00 78 1005.4
20260505070948 17 161 6.4 8.0 0.00 0.00 0.00 78 1005.4
20260505070444 17 197 8.0 9.7 0.00 0.00 0.00 78 1005.5
20260505065940 17 197 9.7 12.9 0.00 0.00 0.00 78 1005.5
20260505065437 17 134 6.4 8.0 0.00 0.00 0.00 78 1005.5
20260505064933 17 183 6.4 8.0 0.00 0.00 0.00 78 1005.6
20260505064431 17 154 8.0 11.3 0.00 0.00 0.00 78 1005.9
20260505063929 17 176 11.3 12.9 0.00 0.00 0.00 78 1006.1
20260505063425 17 158 4.8 4.8 0.00 0.00 0.00 78 1006.4
20260505062922 17 179 6.4 9.7 0.00 0.00 0.00 78 1006.3
20260505062419 17 181 6.4 9.7 0.00 0.00 0.00 78 1006.4
20260505061915 17 196 3.2 4.8 0.00 0.00 0.00 79 1006.4
20260505061414 17 167 4.8 9.7 0.00 0.00 0.00 78 1006.4
20260505060911 17 189 11.3 14.5 0.00 0.00 0.00 78 1006.4
20260505060408 17 174 8.0 9.7 0.00 0.00 0.00 78 1006.3
20260505055904 17 169 8.0 9.7 0.00 0.00 0.00 78 1006.2
20260505055400 17 160 8.0 11.3 0.00 0.00 0.00 78 1006.2
20260505054857 17 192 4.8 9.7 0.00 0.00 0.00 77 1006.3
20260505054354 17 185 6.4 8.0 0.00 0.00 0.00 77 1006.2
20260505053853 17 192 6.4 9.7 0.00 0.00 0.00 78 1006.4
20260505053350 17 143 8.0 9.7 0.00 0.00 0.00 78 1006.2
20260505052846 17 192 9.7 11.3 0.00 0.00 0.00 77 1006.2
20260505052343 17 170 8.0 8.0 0.00 0.00 0.00 78 1006.5
20260505051840 17 151 6.4 8.0 0.00 0.00 0.00 78 1006.4
20260505051337 17 174 6.4 9.7 0.00 0.00 0.00 78 1006.6
20260505050835 17 177 4.8 8.0 0.00 0.00 0.00 78 1006.5
20260505050334 17 175 6.4 9.7 0.00 0.00 0.00 78 1006.4
20260505041301 17 183 4.8 4.8 0.00 0.00 0.00 77 1007.1
20260505040758 17 145 3.2 3.2 0.00 0.00 0.00 76 1007.3
20260505040255 17 175 4.8 4.8 0.00 0.00 0.00 75 1007.2
20260505035752 17 168 3.2 3.2 0.00 0.00 0.00 76 1007.4
20260505035248 18 177 4.8 4.8 0.00 0.00 0.00 75 1007.3
20260505034745 18 180 3.2 3.2 0.00 0.00 0.00 75 1007.5
20260505034242 18 180 3.2 4.8 0.00 0.00 0.00 75 1007.5
20260505033738 18 177 3.2 4.8 0.00 0.00 0.00 75 1007.3
20260505033236 18 166 4.8 4.8 0.00 0.00 0.00 75 1007.4
20260505032734 18 177 4.8 4.8 0.00 0.00 0.00 74 1007.6
20260505032230 18 164 3.2 3.2 0.00 0.00 0.00 74 1007.5
20260505031727 18 183 3.2 3.2 0.00 0.00 0.00 74 1007.6
20260505031223 18 167 4.8 4.8 0.00 0.00 0.00 74 1007.5
20260505030721 18 193 4.8 4.8 0.00 0.00 0.00 74 1007.7
20260505030217 18 179 6.4 8.0 0.00 0.00 0.00 73 1007.5
20260505025713 18 181 4.8 8.0 0.00 0.00 0.00 72 1007.4
20260505025211 18 155 6.4 8.0 0.00 0.00 0.00 73 1007.4
20260505024709 18 190 6.4 9.7 0.00 0.00 0.00 72 1007.2
20260505024206 18 176 4.8 8.0 0.00 0.00 0.00 72 1007.3
20260505023703 18 198 4.8 8.0 0.00 0.00 0.00 72 1007.1
20260505023200 18 165 3.2 3.2 0.00 0.00 0.00 72 1007.3
20260505022658 18 141 1.6 1.6 0.00 0.00 0.00 71 1007.0
20260505022154 18 147 3.2 3.2 0.00 0.00 0.00 70 1007.1
20260505021651 18 162 3.2 3.2 0.00 0.00 0.00 70 1006.8
20260505021148 19 165 3.2 3.2 0.00 0.00 0.00 70 1006.7
20260505020644 19 166 6.4 8.0 0.00 0.00 0.00 70 1006.8
20260505020140 19 169 4.8 4.8 0.00 0.00 0.00 69 1006.5
20260505015637 20 148 1.6 3.2 0.00 0.00 0.00 68 1006.4
20260505015133 20 157 4.8 4.8 0.00 0.00 0.00 67 1006.5
20260505014630 20 152 3.2 4.8 0.00 0.00 0.00 67 1006.5
20260505014127 20 158 3.2 3.2 0.00 0.00 0.00 67 1006.3
20260505013625 20 148 1.6 3.2 0.00 0.00 0.00 66 1006.2
20260505013122 20 135 3.2 3.2 0.00 0.00 0.00 66 1006.1
20260505012620 20 193 3.2 3.2 0.00 0.00 0.00 65 1006.1
20260505012117 20 162 3.2 3.2 0.00 0.00 0.00 65 1006.1
20260505011612 21 167 1.6 3.2 0.00 0.00 0.00 65 1005.9
20260505011110 21 155 1.6 1.6 0.00 0.00 0.00 64 1005.8
20260505010605 21 172 8.0 9.7 0.00 0.00 0.00 63 1005.8
20260505005558 21 204 4.8 8.0 0.00 0.00 0.00 64 1005.6
20260505005055 21 164 3.2 3.2 0.00 0.00 0.00 63 1005.7
20260505004552 21 220 4.8 8.0 0.00 0.00 0.00 62 1005.7
20260505004049 21 207 4.8 4.8 0.00 0.00 0.00 61 1005.5
20260505003546 22 149 1.6 3.2 0.00 0.00 0.00 61 1005.6
20260505003043 22 183 4.8 4.8 0.00 0.00 0.00 59 1005.6
20260505002538 22 212 6.4 8.0 0.00 0.00 0.00 58 1005.5
20260505002037 22 149 6.4 8.0 0.00 0.00 0.00 57 1005.5
20260505001534 23 198 8.0 11.3 0.00 0.00 0.00 56 1005.5
20260505001031 23 209 8.0 11.3 0.00 0.00 0.00 56 1005.7
20260505000529 23 207 6.4 9.7 0.00 0.00 0.00 56 1005.5
20260505000026 23 186 6.4 9.7 0.00 0.00 0.00 55 1005.3
20260504235523 23 160 8.0 11.3 0.00 0.00 0.00 55 1005.6
20260504235019 23 177 12.9 16.1 0.00 0.00 0.00 54 1005.3
20260504234516 23 120 9.7 11.3 0.00 0.00 0.00 54 1005.3
20260504234013 23 209 12.9 16.1 0.00 0.00 0.00 53 1005.5
20260504233508 24 193 9.7 11.3 0.00 0.00 0.00 54 1005.4
20260504233006 24 181 14.5 16.1 0.00 0.00 0.00 53 1005.6
20260504232503 24 211 17.7 22.5 0.00 0.00 0.00 52 1005.4
20260504232001 25 156 16.1 22.5 0.00 0.00 0.00 52 1005.5
20260504231456 25 199 12.9 14.5 0.00 0.00 0.00 52 1005.4
20260504230953 25 223 11.3 12.9 0.00 0.00 0.00 49 1005.5
20260504230449 25 180 17.7 22.5 0.00 0.00 0.00 49 1005.5
20260504225949 25 147 12.9 16.1 0.00 0.00 0.00 50 1005.5
20260504225445 25 226 20.9 25.7 0.00 0.00 0.00 49 1005.6
20260504224942 25 222 8.0 11.3 0.00 0.00 0.00 50 1005.8
20260504224438 25 191 9.7 12.9 0.00 0.00 0.00 50 1005.6
20260504223936 25 209 8.0 16.1 0.00 0.00 0.00 50 1005.6
20260504223431 25 193 6.4 9.7 0.00 0.00 0.00 51 1005.5
20260504222927 25 218 19.3 25.7 0.00 0.00 0.00 49 1005.6
20260504222425 25 209 19.3 25.7 0.00 0.00 0.00 49 1005.8
20260504221923 25 231 6.4 9.7 0.00 0.00 0.00 50 1005.5
20260504221419 25 189 6.4 8.0 0.00 0.00 0.00 50 1005.8
20260504220916 25 237 11.3 16.1 0.00 0.00 0.00 51 1005.8
20260504220413 25 197 6.4 8.0 0.00 0.00 0.00 53 1005.8
20260504215910 25 205 9.7 11.3 0.00 0.00 0.00 51 1005.8
20260504215407 25 187 14.5 20.9 0.00 0.00 0.00 50 1005.8
20260504214903 25 200 14.5 22.5 0.00 0.00 0.00 51 1005.6
20260504214400 25 209 14.5 17.7 0.00 0.00 0.00 50 1005.9
20260504213857 25 236 6.4 9.7 0.00 0.00 0.00 54 1006.1
20260504213352 25 214 17.7 25.7 0.00 0.00 0.00 49 1005.8
20260504212850 25 198 11.3 12.9 0.00 0.00 0.00 52 1005.9
20260504212346 25 249 22.5 29.0 0.00 0.00 0.00 49 1005.9
20260504211844 25 208 24.1 29.0 0.00 0.00 0.00 50 1006.1
20260504211339 25 201 20.9 25.7 0.00 0.00 0.00 50 1006.4
20260504210837 26 239 14.5 16.1 0.00 0.00 0.00 51 1006.2
20260504210334 26 225 16.1 24.1 0.00 0.00 0.00 50 1005.9
20260504205831 26 179 9.7 12.9 0.00 0.00 0.00 51 1006.2
20260504205329 25 226 16.1 24.1 0.00 0.00 0.00 50 1006.3
20260504204827 25 212 14.5 17.7 0.00 0.00 0.00 48 1006.4
20260504204325 25 215 11.3 12.9 0.00 0.00 0.00 50 1006.3
20260504203824 25 204 9.7 12.9 0.00 0.00 0.00 50 1006.6
20260504203321 25 255 11.3 14.5 0.00 0.00 0.00 50 1006.6
20260504202816 25 193 8.0 11.3 0.00 0.00 0.00 52 1006.7
20260504202314 25 224 8.0 11.3 0.00 0.00 0.00 50 1006.9
20260504201810 25 208 9.7 11.3 0.00 0.00 0.00 51 1007.0
20260504201308 25 209 14.5 17.7 0.00 0.00 0.00 53 1006.7
20260504200805 25 273 12.9 16.1 0.00 0.00 0.00 53 1006.9
20260504200301 25 206 19.3 24.1 0.00 0.00 0.00 51 1007.0
20260504195758 25 203 16.1 22.5 0.00 0.00 0.00 49 1007.1
20260504195253 25 222 9.7 12.9 0.00 0.00 0.00 52 1007.0
20260504194751 25 231 16.1 27.4 0.00 0.00 0.00 53 1007.1
20260504194247 25 196 14.5 16.1 0.00 0.00 0.00 52 1007.1
20260504193743 25 187 20.9 25.7 0.00 0.00 0.00 51 1007.6
20260504193241 25 213 17.7 22.5 0.00 0.00 0.00 53 1007.3
20260504192739 25 206 17.7 22.5 0.00 0.00 0.00 53 1007.2
20260504192237 25 169 8.0 14.5 0.00 0.00 0.00 55 1007.3
20260504191735 25 202 9.7 12.9 0.00 0.00 0.00 56 1007.5
20260504191232 25 196 14.5 17.7 0.00 0.00 0.00 53 1007.3
20260504190727 25 240 14.5 17.7 0.00 0.00 0.00 53 1007.2
20260504190224 25 191 20.9 25.7 0.00 0.00 0.00 51 1007.2
20260504185720 25 167 20.9 27.4 0.00 0.00 0.00 52 1007.3
20260504185217 25 206 12.9 16.1 0.00 0.00 0.00 54 1007.2
20260504184713 25 156 8.0 11.3 0.00 0.00 0.00 55 1007.2
20260504184209 25 186 16.1 17.7 0.00 0.00 0.00 53 1007.3
20260504183705 25 189 16.1 17.7 0.00 0.00 0.00 52 1007.3
20260504183202 25 207 14.5 20.9 0.00 0.00 0.00 53 1007.6
20260504182700 25 211 9.7 12.9 0.00 0.00 0.00 55 1007.2
20260504182157 25 189 16.1 16.1 0.00 0.00 0.00 53 1007.4
20260504181655 25 201 11.3 12.9 0.00 0.00 0.00 55 1007.3
20260504181152 25 195 19.3 24.1 0.00 0.00 0.00 52 1007.7
20260504180651 25 184 12.9 20.9 0.00 0.00 0.00 52 1007.6
20260504180150 25 244 16.1 20.9 0.00 0.00 0.00 53 1007.6
20260504175646 24 227 14.5 17.7 0.00 0.00 0.00 53 1007.7
20260504175143 24 187 4.8 8.0 0.00 0.00 0.00 53 1007.6
20260504174641 24 216 12.9 14.5 0.00 0.00 0.00 52 1007.7
20260504174137 24 243 16.1 22.5 0.00 0.00 0.00 54 1007.9
20260504173635 24 201 9.7 16.1 0.00 0.00 0.00 52 1007.9
20260504173132 24 217 6.4 9.7 0.00 0.00 0.00 55 1007.6
20260504172629 24 202 8.0 11.3 0.00 0.00 0.00 54 1007.7
20260504172125 24 208 9.7 11.3 0.00 0.00 0.00 54 1007.8
20260504171621 24 198 14.5 17.7 0.00 0.00 0.00 54 1007.9
20260504171119 23 223 19.3 25.7 0.00 0.00 0.00 54 1007.9
20260504170615 23 200 11.3 14.5 0.00 0.00 0.00 57 1007.7
20260504170113 23 210 9.7 12.9 0.00 0.00 0.00 57 1007.7
20260504150958 21 226 9.7 12.9 0.00 0.00 0.00 57 1009.2
20260504150455 21 284 6.4 9.7 0.00 0.00 0.00 59 1009.2